Temperature
10 10 10 10 10 11 11 11 11 11 11 11 11 12 11 11 11 11 11 10 10 10 9 9 9 9 9 9 8 8 8 8 8 8 7 7 7 7
10 10 10 10 10 10 10 10 10 10 10 10 11 11 11 11 10 10 10 10 10 9 9 9 9 8 8 8 8 8 8 7 7 7 7 7 7 7
9 9 9 10 9 9 9 9 9 9 9 9 10 10 10 10 10 10 9 9 9 9 8 8 8 8 8 8 7 7 7 7 7 6 6 6 6 6
9 9 9 9 9 9 9 8 8 8 8 8 9 9 9 9 9 9 9 9 9 8 8 7 7 7 7 7 7 7 7 6 6 6 6 6 6 6
8 8 8 8 8 8 8 8 8 8 8 8 8 8 8 8 8 8 8 8 8 8 7 7 7 7 7 6 6 6 6 6 6 6 5 5 5 5
7 7 7 7 7 7 7 7 7 7 7 7 7 7 7 7 7 7 7 7 7 7 7 6 6 6 6 6 6 6 6 5 5 5 5 5 5 5
6 6 7 6 6 6 6 6 6 6 6 6 6 6 6 6 6 6 6 6 6 6 6 5 5 5 5 5 5 5 5 5 5 5 4 4 4 5
5 6 6 6 5 5 5 5 5 5 5 5 4 5 5 5 5 5 5 5 5 5 5 5 5 5 5 5 4 4 4 4 4 4 4 4 4 4
4 4 4 5 4 4 4 4 4 4 4 4 4 4 4 4 4 4 4 4 4 5 4 4 4 4 4 4 4 4 4 4 4 4 4 3 3 3
3 3 3 3 3 3 3 3 3 3 3 3 3 3 3 4 4 4 4 3 3 3 4 3 4 4 4 3 3 3 3 3 3 3 3 3 3 3
2 2 2 2 2 2 2 2 2 2 2 2 2 2 3 3 3 3 2 2 2 3 3 3 3 3 3 3 3 3 3 3 2 2 2 2 3 3
1 1 1 1 1 1 1 1 1 1 1 1 1 2 2 2 2 2 2 2 2 2 2 2 2 2 2 2 2 2 2 2 2 2 2 2 2 2
-1 -1 -0 -0 0 0 -0 -0 -0 -0 -0 0 0 0 1 1 1 1 1 1 2 2 2 2 2 2 1 1 2 2 2 1 1 1 1 1 1 1
-2 -2 -2 -1 -1 -1 -1 -1 -1 -1 -1 -1 -1 -1 -1 -0 0 0 0 0 1 1 1 1 1 1 1 1 1 1 1 1 1 1 1 1 1 1
-3 -3 -3 -2 -2 -2 -2 -2 -2 -2 -2 -2 -2 -2 -2 -1 -1 -1 -1 -0 -0 -0 -0 0 0 0 0 1 1 1 0 0 -0 -0 0 0 0 0
-4 -4 -3 -3 -3 -3 -3 -3 -3 -3 -3 -3 -3 -3 -2 -2 -2 -2 -1 -1 -1 -1 -1 -1 -1 -1 -1 -1 -0 0 0 -0 -0 -0 -1 -1 -0 -0
-5 -5 -4 -4 -4 -4 -4 -4 -4 -4 -4 -4 -4 -4 -4 -3 -3 -3 -2 -2 -2 -2 -2 -2 -2 -2 -2 -1 -1 -1 -1 -1 -1 -1 -1 -1 -1 -1
-5 -5 -5 -5 -5 -5 -5 -5 -5 -5 -5 -5 -5 -5 -4 -4 -4 -3 -3 -3 -3 -2 -2 -2 -2 -2 -3 -3 -2 -2 -2 -2 -1 -1 -2 -2 -1 -1
-6 -6 -6 -6 -6 -6 -6 -6 -6 -6 -6 -5 -5 -5 -5 -5 -4 -4 -4 -4 -3 -3 -3 -3 -3 -3 -3 -3 -3 -3 -2 -2 -2 -2 -2 -2 -1 -1
-6 -7 -7 -7 -7 -7 -6 -6 -6 -6 -6 -6 -6 -6 -5 -5 -5 -5 -4 -4 -4 -4 -4 -3 -3 -3 -3 -3 -3 -3 -3 -3 -3 -3 -2 -2 -2 -2
-7 -7 -7 -7 -7 -7 -7 -7 -7 -7 -7 -6 -6 -6 -6 -6 -5 -5 -5 -5 -4 -4 -4 -4 -4 -4 -4 -4 -4 -4 -4 -4 -3 -3 -3 -3 -3 -2
-8 -8 -8 -8 -8 -8 -7 -7 -7 -7 -7 -7 -7 -6 -6 -6 -6 -6 -5 -5 -5 -5 -5 -4 -4 -4 -5 -4 -4 -4 -4 -4 -4 -4 -4 -3 -3 -2
-8 -8 -8 -8 -8 -8 -8 -8 -8 -7 -7 -7 -7 -7 -6 -6 -6 -6 -6 -5 -5 -5 -5 -5 -5 -5 -5 -5 -5 -5 -5 -5 -5 -4 -4 -4 -3 -3
Wind_Speed
13 13 12 11 10 9 8 8 8 10 11 9 7 8 9 10 11 13 14 16 18 18 17 16 14 13 13 12 11 9 9 8 8 7 6 6 5 6
8 11 11 9 9 8 7 8 9 9 9 7 6 5 7 7 10 12 13 14 16 17 17 16 15 14 13 13 12 11 10 10 9 8 7 6 5 5
8 9 10 9 8 8 7 7 8 7 9 5 4 4 7 8 8 10 11 11 12 16 17 17 16 15 14 14 13 12 11 10 10 9 8 7 6 5
8 8 9 8 9 8 7 8 8 8 7 8 5 5 8 9 8 8 8 10 11 14 16 17 17 17 16 15 14 13 13 12 10 9 8 7 6 6
6 7 7 8 9 8 8 8 7 7 7 7 6 5 5 5 6 6 7 7 9 12 15 17 18 18 17 16 15 15 14 13 12 10 9 7 6 7
5 6 6 7 8 8 7 8 7 8 8 7 6 5 5 4 5 6 7 7 7 8 12 14 16 18 18 17 17 16 16 15 13 11 10 8 7 7
4 5 6 6 7 7 7 7 7 7 7 7 7 6 6 6 7 7 8 7 7 6 7 8 9 10 12 16 17 16 16 16 14 13 11 10 8 7
5 5 5 6 7 8 9 9 9 9 9 8 7 9 9 9 8 7 7 6 7 6 8 8 7 9 9 11 15 17 17 16 15 13 12 10 9 8
5 6 4 4 6 7 8 9 11 12 12 10 10 11 10 9 8 9 10 9 9 6 7 8 8 9 8 12 16 17 18 17 15 14 12 10 9 8
6 7 7 6 5 6 7 8 9 10 10 10 10 11 10 9 10 9 9 8 5 4 7 7 6 7 6 8 15 18 18 17 16 14 13 11 9 8
7 7 8 7 7 8 7 8 9 9 8 11 12 12 12 12 11 7 7 7 7 6 6 5 4 4 4 6 10 16 17 17 16 15 14 12 9 7
7 7 8 10 11 10 8 8 9 9 8 9 9 9 10 11 13 11 10 9 6 5 7 6 5 4 3 4 5 9 12 15 16 15 14 12 9 6
7 7 8 13 14 12 10 9 10 10 9 8 8 8 7 7 8 8 8 8 7 5 6 7 5 5 4 3 4 6 8 7 10 11 13 12 11 8
8 8 9 14 15 14 11 10 11 10 6 6 6 7 7 6 6 6 6 7 6 6 7 8 5 6 6 4 4 5 5 6 7 7 7 11 10 10
8 12 14 15 14 11 10 11 9 6 5 6 7 7 6 5 4 4 3 3 2 2 6 6 5 6 5 5 5 5 5 5 7 6 6 7 6 6
10 11 13 12 9 9 9 7 6 6 6 6 7 6 5 4 4 4 4 3 2 2 2 4 5 6 5 4 4 6 6 7 7 7 6 5 5 6
11 9 8 7 7 7 6 6 6 6 6 6 6 6 5 5 4 3 3 3 4 4 3 3 3 3 2 3 4 6 7 5 6 7 6 6 5 5
10 7 7 7 7 7 7 7 7 7 6 6 6 6 5 5 5 3 3 4 5 5 5 5 5 4 2 1 1 6 6 5 6 7 6 6 5 5
7 7 7 7 7 7 7 7 7 7 7 6 6 6 5 5 5 4 4 4 5 5 5 6 7 7 7 6 3 4 5 6 7 6 6 5 5 5
6 7 8 8 8 8 8 8 8 8 7 7 6 6 5 5 5 5 5 5 5 4 5 6 7 7 7 5 4 3 6 6 7 7 6 4 3 3
8 8 8 8 8 8 8 8 8 8 8 7 6 6 6 5 5 5 5 6 5 5 6 6 5 6 4 5 5 4 4 4 4 4 6 5 4 4
8 8 8 9 9 9 8 8 8 8 8 7 6 6 5 5 5 6 5 5 5 5 5 4 6 6 4 5 6 6 6 6 5 6 4 2 3 5
9 9 9 9 9 8 8 9 9 8 7 7 6 6 5 5 5 5 5 4 4 4 5 5 6 5 5 6 6 7 9 8 6 6 3 3 3 4
Wind_Direction
221 222 223 225 226 224 223 224 229 243 243 237 226 215 214 219 217 219 225 219 217 222 225 226 228 226 225 228 229 230 233 235 234 234 242 259 272 284
223 224 225 226 227 224 223 229 232 239 247 235 229 218 209 217 215 220 227 222 220 220 222 224 224 221 220 223 221 223 226 224 222 230 240 249 266 282
223 226 228 224 224 223 222 225 229 232 244 246 237 220 210 217 215 219 222 222 223 221 223 222 221 219 220 217 217 219 219 217 220 229 238 243 259 276
229 229 231 227 227 227 225 228 230 229 235 243 241 226 224 220 218 219 218 218 223 221 221 223 221 218 216 214 215 217 217 215 219 227 231 239 253 269
240 236 238 233 231 230 229 230 232 234 235 239 242 236 233 217 220 226 226 226 224 221 221 223 223 220 218 217 217 217 213 212 217 221 224 233 248 267
256 247 243 238 238 239 237 236 235 234 235 235 236 233 232 217 215 225 231 229 229 222 223 223 224 221 220 220 219 217 211 211 215 217 221 227 238 257
288 263 250 245 245 243 242 241 238 237 237 239 240 240 231 215 220 220 228 232 236 225 226 223 218 220 218 218 218 214 210 211 213 215 219 224 231 246
325 302 274 252 251 247 244 243 239 238 240 241 242 242 242 235 233 227 226 231 240 213 216 227 215 221 216 214 214 211 209 212 213 214 217 222 229 240
338 334 309 288 279 267 257 248 242 240 239 242 248 246 246 238 232 231 228 230 239 213 203 226 216 225 216 212 209 208 208 210 212 213 215 220 227 236
336 330 322 307 295 290 279 267 261 253 248 247 249 251 251 244 236 237 239 243 260 224 199 220 211 221 216 213 209 205 206 208 210 211 212 214 221 231
338 334 330 317 318 312 287 276 273 271 264 260 261 260 254 245 238 235 228 229 245 232 207 208 198 200 207 215 208 204 205 207 209 210 209 209 213 223
332 329 332 330 320 315 294 285 279 281 284 281 273 264 254 241 229 226 222 225 236 231 200 192 187 174 197 209 202 199 204 207 208 208 206 206 206 215
326 325 326 331 322 311 302 287 283 289 281 275 273 271 264 251 240 236 229 224 227 233 190 183 187 184 184 179 191 197 198 196 198 201 203 204 204 208
321 320 320 324 321 313 306 299 297 295 284 278 273 268 262 257 251 248 241 241 238 229 195 181 186 184 178 178 187 183 190 189 188 191 193 196 203 208
317 316 315 317 318 315 315 313 308 297 284 277 274 276 274 268 264 258 249 228 229 220 195 194 185 181 184 184 174 173 175 186 188 187 185 188 192 194
317 315 314 313 311 310 314 317 315 304 295 286 286 285 285 272 256 248 236 210 221 229 177 181 183 178 186 178 174 179 176 176 181 185 181 185 190 197
319 313 313 316 318 319 320 321 319 313 306 300 293 288 283 276 264 248 236 225 226 219 197 165 143 132 131 160 178 181 176 172 174 173 176 183 192 196
320 313 312 313 314 314 313 314 314 311 308 303 295 287 280 274 270 257 240 231 226 216 200 178 158 146 135 49 191 177 175 169 166 170 175 180 189 193
322 317 315 313 311 310 309 307 307 307 305 299 295 290 286 278 266 255 245 236 229 217 197 182 182 182 190 199 186 191 177 164 162 169 178 179 182 181
326 320 316 314 311 308 307 305 304 304 300 296 292 287 283 277 267 255 244 237 227 213 198 191 195 197 199 184 159 162 177 166 167 169 165 151 122 124
325 321 317 314 312 310 307 304 302 300 296 293 288 284 281 274 268 262 252 231 222 214 205 200 189 160 129 123 128 134 142 150 143 153 154 152 154 165
321 318 316 313 312 310 308 306 304 302 299 291 288 286 282 275 269 263 254 238 224 213 201 173 150 154 166 174 162 148 139 134 125 121 115 115 159 179
319 316 314 313 312 310 310 308 305 302 300 295 290 287 284 280 277 269 257 244 220 196 175 163 158 160 163 161 154 147 145 144 141 137 122 103 90 93
Height
1465 1467 1470 1472 1475 1477 1479 1481 1483 1482 1481 1483 1484 1485 1487 1488 1489 1489 1490 1490 1491 1491 1492 1491 1491 1491 1491 1491 1491 1491 1490 1490 1490 1489 1489 1489 1488 1487
1458 1460 1462 1464 1466 1468 1470 1473 1474 1475 1474 1475 1477 1478 1479 1480 1481 1482 1482 1482 1483 1483 1484 1484 1484 1485 1485 1485 1485 1485 1485 1484 1484 1484 1484 1484 1484 1483
1450 1452 1453 1456 1458 1459 1461 1463 1465 1467 1466 1467 1469 1470 1471 1472 1473 1473 1474 1474 1475 1475 1476 1476 1477 1477 1478 1478 1479 1479 1479 1479 1479 1479 1479 1479 1479 1479
1443 1445 1446 1448 1450 1452 1454 1455 1456 1458 1459 1458 1460 1461 1462 1464 1465 1465 1466 1466 1466 1467 1468 1468 1469 1470 1470 1471 1471 1472 1472 1473 1474 1474 1474 1474 1474 1474
1437 1438 1439 1441 1442 1444 1445 1446 1448 1450 1450 1451 1451 1453 1454 1455 1456 1456 1457 1457 1458 1459 1460 1460 1461 1462 1462 1463 1464 1465 1466 1467 1468 1468 1469 1469 1469 1470
1431 1432 1432 1433 1434 1436 1437 1438 1440 1441 1442 1443 1443 1444 1445 1446 1447 1447 1447 1449 1450 1451 1451 1452 1453 1454 1455 1456 1457 1458 1459 1460 1461 1462 1463 1464 1464 1464
1425 1425 1425 1426 1426 1428 1429 1430 1431 1432 1433 1434 1434 1435 1436 1437 1438 1438 1438 1440 1441 1442 1443 1443 1445 1445 1446 1448 1449 1450 1452 1454 1455 1456 1457 1458 1459 1459
1419 1419 1419 1419 1420 1420 1421 1422 1423 1424 1425 1426 1426 1426 1427 1429 1430 1430 1430 1431 1431 1434 1435 1434 1436 1437 1438 1440 1442 1443 1445 1447 1448 1450 1451 1452 1453 1454
1414 1414 1413 1413 1413 1413 1413 1414 1415 1416 1417 1418 1417 1417 1419 1420 1422 1421 1422 1422 1422 1424 1425 1425 1427 1428 1430 1431 1434 1436 1438 1440 1442 1443 1445 1446 1448 1449
1411 1409 1408 1407 1407 1406 1406 1406 1406 1407 1408 1409 1409 1410 1411 1412 1413 1413 1413 1414 1414 1415 1416 1417 1418 1420 1422 1424 1426 1428 1430 1433 1435 1437 1438 1440 1442 1444
1407 1405 1403 1401 1400 1400 1400 1399 1399 1399 1400 1401 1401 1401 1402 1403 1404 1404 1404 1405 1404 1405 1407 1408 1409 1412 1414 1415 1418 1420 1423 1425 1428 1430 1433 1435 1437 1438
1403 1401 1399 1397 1395 1394 1394 1393 1392 1391 1392 1392 1392 1392 1393 1393 1394 1395 1395 1396 1396 1396 1397 1400 1401 1404 1406 1408 1410 1413 1416 1418 1421 1424 1426 1429 1431 1433
1399 1397 1395 1392 1391 1389 1388 1387 1386 1385 1385 1384 1383 1383 1383 1384 1384 1385 1386 1387 1387 1387 1389 1392 1393 1395 1398 1399 1402 1405 1408 1411 1414 1417 1420 1423 1426 1428
1396 1393 1391 1388 1386 1384 1383 1381 1380 1379 1378 1376 1376 1375 1375 1375 1376 1377 1377 1378 1379 1380 1382 1383 1385 1387 1390 1392 1394 1398 1401 1405 1408 1411 1414 1417 1420 1423
1393 1390 1387 1385 1382 1379 1378 1376 1374 1373 1371 1370 1369 1368 1368 1368 1368 1369 1369 1370 1371 1372 1374 1376 1378 1381 1383 1385 1387 1390 1394 1398 1401 1405 1408 1412 1415 1417
1389 1386 1384 1381 1378 1376 1373 1371 1370 1368 1366 1365 1363 1362 1361 1361 1361 1361 1362 1363 1364 1365 1367 1369 1372 1375 1377 1379 1382 1384 1388 1391 1395 1399 1403 1407 1410 1413
1386 1383 1380 1377 1375 1372 1370 1368 1366 1364 1362 1360 1359 1357 1356 1356 1355 1356 1356 1357 1358 1359 1360 1363 1366 1368 1371 1374 1377 1379 1382 1386 1390 1394 1397 1401 1404 1408
1382 1379 1376 1374 1371 1369 1366 1364 1362 1360 1358 1356 1355 1353 1352 1351 1351 1351 1351 1352 1353 1354 1355 1357 1360 1363 1366 1369 1372 1374 1378 1381 1385 1389 1393 1396 1400 1404
1380 1376 1374 1371 1369 1366 1364 1361 1359 1357 1355 1353 1351 1349 1348 1347 1347 1346 1346 1347 1348 1349 1350 1352 1354 1357 1360 1362 1365 1369 1373 1376 1380 1384 1388 1392 1396 1400
1377 1374 1371 1369 1366 1363 1360 1358 1355 1353 1351 1349 1347 1345 1344 1343 1343 1342 1342 1343 1343 1344 1345 1347 1349 1352 1355 1358 1361 1364 1369 1372 1376 1380 1384 1388 1393 1397
1375 1372 1369 1366 1363 1360 1357 1354 1352 1349 1347 1345 1344 1342 1341 1340 1339 1338 1338 1339 1339 1340 1341 1343 1345 1349 1352 1355 1358 1360 1365 1369 1373 1377 1381 1385 1389 1392
1372 1369 1366 1363 1360 1357 1354 1351 1348 1346 1344 1342 1340 1339 1337 1336 1335 1335 1335 1335 1336 1337 1338 1340 1343 1345 1348 1351 1354 1358 1362 1366 1370 1374 1379 1383 1385 1389
1369 1366 1363 1360 1357 1354 1351 1348 1345 1343 1341 1339 1337 1336 1334 1333 1332 1332 1331 1332 1333 1334 1335 1337 1340 1342 1345 1348 1352 1355 1359 1363 1367 1371 1376 1379 1383 1387